Change the Weather History Date:

Thursday, September 11, 2014

  Actual Average Record
Temperature  
Mean Temperature 83 °F 74 °F  
Max Temperature 91 °F 85 °F 96 °F (1925)
Min Temperature 74 °F 64 °F 46 °F (1940)
Degree Days  
Heating Degree Days 0 0  
Month to date heating degree days 0 0  
Since 1 July heating degree days 0 0  
Cooling Degree Days 18 9  
Month to date cooling degree days 174 119  
Year to date cooling degree days 1675 1569  
Growing Degree Days 32 (Base 50)    
Moisture  
Dew Point 71 °F    
Average Humidity 73    
Maximum Humidity 93    
Minimum Humidity 52    
Precipitation  
Precipitation 0.47 in 0.14 in 1.35 in (1944)
Month to date precipitation 1.45 1.40  
Year to date precipitation 30.10 36.66  
Snow  
Snow 0.00 in 0.00 in - ()
Month to date snowfall 0.0 0.0  
Since 1 July snowfall 0.0 0.0  
Since 1 September snowfall 0.0 0.0  
Snow Depth 0.00 in    
Sea Level Pressure  
Sea Level Pressure 30.01 in    
Wind  
Wind Speed 5 mph (SSW)    
Max Wind Speed 18 mph    
Max Gust Speed 22 mph    
Visibility 9 miles    
Events Rain    
T = Trace of Precipitation, MM = Missing Value Source: NWS Daily Summary

Daily Weather History Graph

Daily Weather History Graph

Search for Another Location

Airport or City:

Trip Planner

Search our weather history database for the weather conditions in past years. The results will help you decide how hot, cold, wet, or windy it might be!

Date:

Astronomy

Sep. 11, 2014 Rise Set
Actual Time 7:20 AM EDT 7:53 PM EDT
Civil Twilight 6:55 AM EDT 8:18 PM EDT
Nautical Twilight 6:25 AM EDT 8:48 PM EDT
Astronomical Twilight 5:54 AM EDT 9:19 PM EDT
Moon 9:40 PM EDT (9/11) 10:08 AM EDT (9/11)
Length of Visible Light 13h 23m
Length of Day
12h 32m
Waning Gibbous, 91% of the Moon is Illuminated
Sep 11
Waning Gibbous
Sep 15
Last Quarter
Sep 24
New
Oct 1
First Quarter
Oct 8
Full

Hourly Weather History & Observations

Time (EDT) Temp. Heat Index Dew Point Humidity Pressure Visibility Wind Dir Wind Speed Gust Speed Precip Events Conditions
12:53 AM 77.0 °F - 69.1 °F 76% 30.00 in 10.0 mi South 4.6 mph - N/A   Overcast
1:53 AM 77.0 °F - 69.1 °F 76% 30.00 in 10.0 mi South 3.5 mph - N/A   Overcast
2:53 AM 77.0 °F - 69.1 °F 76% 30.00 in 10.0 mi Calm Calm - N/A   Overcast
3:53 AM 75.9 °F - 69.1 °F 79% 29.99 in 10.0 mi SE 3.5 mph - N/A   Mostly Cloudy
4:53 AM 75.9 °F - 70.0 °F 82% 30.00 in 10.0 mi South 3.5 mph - 0.00 in   Overcast
5:53 AM 75.0 °F - 70.0 °F 84% 30.00 in 6.0 mi SSE 3.5 mph - 0.00 in Rain Light Rain
6:07 AM 73.9 °F - 71.1 °F 91% 30.02 in 1.5 mi SE 3.5 mph - 0.03 in Rain Heavy Rain
6:09 AM 73.9 °F - 71.1 °F 91% 30.03 in 5.0 mi Calm Calm - 0.08 in Rain Light Rain
6:53 AM 73.9 °F - 71.1 °F 91% 30.01 in 6.0 mi Calm Calm - 0.08 in Rain Light Rain
7:25 AM 73.9 °F - 71.1 °F 91% 30.02 in 8.0 mi Calm Calm - 0.11 in Rain Light Rain
7:53 AM 73.9 °F - 71.1 °F 91% 30.01 in 10.0 mi Calm Calm - 0.11 in   Mostly Cloudy
8:05 AM 73.9 °F - 71.1 °F 91% 30.04 in 7.0 mi Calm Calm - N/A   Mostly Cloudy
8:53 AM 75.0 °F - 71.1 °F 87% 30.03 in 10.0 mi Calm Calm - N/A   Overcast
9:53 AM 75.9 °F - 71.1 °F 85% 30.03 in 7.0 mi South 6.9 mph - N/A   Overcast
10:49 AM 78.8 °F - 73.4 °F 83% 30.05 in 9.0 mi SSW 8.1 mph - N/A Rain Light Rain
10:53 AM 79.0 °F - 73.0 °F 82% 30.03 in 9.0 mi SW 5.8 mph - 0.00 in Rain Light Rain
11:32 AM 81.0 °F 85.8 °F 73.0 °F 77% 30.05 in 10.0 mi West 4.6 mph - 0.00 in   Mostly Cloudy
11:53 AM 82.0 °F 87.9 °F 73.9 °F 76% 30.02 in 10.0 mi SW 5.8 mph - 0.00 in   Mostly Cloudy
12:04 PM 82.9 °F 88.8 °F 73.0 °F 72% 30.03 in 10.0 mi SW 6.9 mph - N/A   Mostly Cloudy
12:53 PM 86.0 °F 93.0 °F 73.0 °F 65% 30.00 in 10.0 mi South 6.9 mph - N/A   Mostly Cloudy
1:53 PM 89.1 °F 95.0 °F 71.1 °F 55% 29.99 in 10.0 mi WSW 11.5 mph 17.3 mph N/A   Mostly Cloudy
2:53 PM 89.1 °F 94.1 °F 70.0 °F 53% 29.96 in 10.0 mi WSW 11.5 mph - N/A   Mostly Cloudy
3:53 PM 90.0 °F 96.4 °F 71.1 °F 54% 29.95 in 10.0 mi SW 6.9 mph - N/A   Mostly Cloudy
4:53 PM 90.0 °F 94.5 °F 69.1 °F 50% 29.95 in 10.0 mi SW 10.4 mph - N/A   Mostly Cloudy
5:53 PM 86.0 °F 91.5 °F 71.1 °F 61% 29.96 in 10.0 mi SSW 9.2 mph - N/A   Mostly Cloudy
6:53 PM 84.0 °F 91.2 °F 73.9 °F 72% 29.96 in 10.0 mi Calm Calm - 0.00 in   Mostly Cloudy
7:53 PM 81.0 °F 84.9 °F 71.1 °F 72% 29.98 in 10.0 mi NE 10.4 mph - N/A   Mostly Cloudy
8:53 PM 79.0 °F - 70.0 °F 74% 30.00 in 10.0 mi ENE 6.9 mph - N/A   Mostly Cloudy
9:53 PM 78.1 °F - 70.0 °F 76% 30.01 in 10.0 mi NNE 5.8 mph - N/A   Mostly Cloudy
10:53 PM 78.1 °F - 70.0 °F 76% 30.04 in 10.0 mi ENE 3.5 mph - N/A   Mostly Cloudy
11:53 PM 75.9 °F - 72.0 °F 87% 30.04 in 10.0 mi WNW 5.8 mph - N/A   Overcast